This demonstration page uses our WeatherBlox Daily Observations layout. Learn more.

Left ArrowRight Arrow

34.74481, -87.66753

Hourly Observations for June 25, 2017

Temp ( °F °C ) Dew Point ( °F °C ) Humidity (%) Winds ( mph kmh ) Pressure ( in mb ) Visibility ( mi km ) Precip ( " mm )
12:53 am 00:53 Clear 69 20.6 62 16.7 78 78 N 3 6 30.14 1021 10 16 0.00 0.00
1:53 am 01:53 Clear 69 20.6 60 15.6 73 73 VRB 6 9 30.14 1021 10 16 0.00 0.00
2:53 am 02:53 Clear 69 20.6 57 13.9 66 66 NNE 7 11 30.14 1021 10 16 0.00 0.00
3:53 am 03:53 Clear 69 20.6 55 12.8 61 61 N 7 11 30.17 1022 10 16 0.00 0.00
4:53 am 04:53 Clear 68 20 56 13.3 65 65 NE 3 6 30.17 1022 10 16 0.00 0.00
5:53 am 05:53 Mostly Cloudy 68 20 56 13.3 65 65 VRB 3 6 30.17 1022 10 16 0.00 0.00
6:53 am 06:53 Sunny 68 20 55 12.8 63 63 VRB 6 9 30.19 1023 10 16 0.00 0.00
7:53 am 07:53 Sunny 69 20.6 55 12.8 61 61 ENE 6 9 30.21 1023 10 16 0.00 0.00
8:53 am 08:53 Sunny 71 21.7 55 12.8 57 57 NE 6 9 30.21 1023 10 16 0.00 0.00
9:53 am 09:53 Sunny 74 23.3 55 12.8 52 52 NE 8 13 30.22 1023 10 16 0.00 0.00
10:53 am 10:53 Sunny 76 24.4 53 11.7 45 45 ENE 8 13 30.23 1024 10 16 0.00 0.00
11:53 am 11:53 Sunny 80 26.7 51 10.6 37 37 N 8 13 30.22 1024 10 16 0.00 0.00
12:53 pm 12:53 Sunny 83 28.3 51 10.6 33 33 NNW 7 11 30.22 1023 10 16 0.00 0.00
1:53 pm 13:53 Sunny 83 28.3 52 11.1 34 34 N 10 17 30.20 1023 10 16 0.00 0.00
2:53 pm 14:53 Sunny 83 28.3 52 11.1 34 34 NNE 8 13 30.19 1022 10 16 0.00 0.00
3:53 pm 15:53 Sunny 84 28.9 50 10 31 31 NNW 10 17 30.16 1022 10 16 0.00 0.00
4:53 pm 16:53 Sunny 84 28.9 49 9.4 30 30 N 8 13 30.15 1021 10 16 0.00 0.00
5:53 pm 17:53 Sunny 83 28.3 49 9.4 31 31 NNW 8 13 30.14 1021 10 16 0.00 0.00
6:53 pm 18:53 Sunny 82 27.8 50 10 33 33 N 3 6 30.15 1021 10 16 0.00 0.00
7:53 pm 19:53 Sunny 77 25 52 11.1 42 42 N 3 6 30.17 1022 10 16 0.00 0.00
8:53 pm 20:53 Clear 72 22.2 54 12.2 53 53 Calm 30.17 1022 10 16 0.00 0.00
9:53 pm 21:53 Clear 67 19.4 55 12.8 66 66 Calm 30.18 1022 10 16 0.00 0.00
10:53 pm 22:53 Clear 63 17.2 58 14.4 84 84 Calm 30.18 1022 10 16 0.00 0.00
11:53 pm 23:53 Clear 63 17.2 57 13.9 81 81 Calm 30.19 1022 10 16 0.00 0.00

Powered by AerisWeather